ARIANE 5 DEB (SYLDA), 26722

Orbit data source: Space-Track

ARIANE 5 DEB (SYLDA), 26722 is space debris in HEO originally from a launch on Thu, 08 Mar 2001 UTC launched from the French Guiana (FRGUI). Debris objects in space refer to the collection of defunct objects orbiting the Earth. Examples of debris include non-operational satellites, rocket bodies, and fragments generated from explosions, collisions, or faulty payload assembly.

Loading next visibility...
Identifier
26722, 2001-011D
Orbit
HEO
Country
Flag of FRFR
Related business
Manufacturer
Astrium
Mission
Spacecraft
Bus & Motor
SYLDA 5, Unknown motor
Mass
440 kg wet, 440 kg dry
Launch date (UTC)
2001-03-08 (25 years ago)
Launch vehicle
Unknown
Launch site
French Guiana (FRGUI)
Object type
Payload
Rocket body
Debris
Shape & HBR
Cyl, 2.5 m
Radar Cross Section
25.270 m², Large (>1 m²)

Expand to show TLE details & history
Last TLE update: 17 hours ago

TLE from 17 hours ago
0 ARIANE 5 DEB (SYLDA)
1 26722U 01011D   26034.65320733  .00000103  00000-0  10911-1 0  9993
2 26722   2.4153 353.9667 7065975  62.7459 351.0063  2.22941594202939
Epoch: 2026-02-03T15:40Z
TLE epoch observation values (Epoch: 2026-02-03T15:40:37.113Z)
Latitude
0.00032°
Longitude
-14.25575°
Altitude
2,960.167 km
Speed
8.322 km/s
True Right ascension
23h 38m 55s
True Declination
0° 00' 01"
Sunlit
Object was in daylight at epoch
Visualization orbit readout
Latitude
Unknown
Longitude
Unknown
Altitude
Unknown
Speed
Unknown
Apparent Right ascension
Unknown
Apparent Declination
Unknown
Sunlit
N/A
Visualization observer readout
Local Sidereal Time
10:22:24
Azimuth
Unknown
Elevation
Unknown
Doppler factor
Unknown
Orbital elements
Apogee altitude
35,871.894 km
Perigee altitude
885.594 km
Semi-major axis
24,756.881 km
Eccentricity
0.7066
Inclination
2.4153°
RAAN
353.9667°
Arg. of periapsis
62.7459°
True anomaly
297.96003°
Mean anomaly
351.0063°
Eccentric anomaly
331.99925°
Mean motion
0.55718 °/min
Orbital period
646.11 mins
BSTAR
0.010911
Loading maneuver chart data...
Computing Atmospheric mass density...
Loading historical data...
Loading historical data...
Loading historical data...
Loading historical data...
Loading historical data...
Loading historical data...
Loading historical data...
Other satellites on launch #11 in the year 2001 (2001-03-08 UTC)

Documentation

Showing up to 5 results
|